Location: Anaheim
(33.8350°N, 117.9140°W)
Time: 06:30:27
(UTC-08:00)

Amateur Radio Satellites - All Passes

Search period start: 05 December 2016 06:00
Search period end: 06 December 2016 06:00
Location: Anaheim, 33.8350°N, 117.9140°W

Satellite Date Start Highest point End Downlink Frequencies (MHz)
Time Altitude Azimuth
BEESAT 3 05 Dec 06:09:05 06:10:30 12° 311° (NW) 06:11:54 437.485
STRAND 1 05 Dec 06:20:52 06:25:58 72° 75° (ENE) 06:31:06 437.568
Cosmos 2491 05 Dec 06:21:05 06:29:32 55° 90° (E) 06:37:59 435.465 / 435.565
LilacSat-2 05 Dec 06:21:22 06:25:01 50° 284° (WNW) 06:28:39 437.200
CUTE-I 05 Dec 06:29:30 06:34:47 67° 286° (WNW) 06:40:02 437.470
NOAA 18 05 Dec 06:29:58 06:35:31 74° 103° (ESE) 06:41:00 137.9125
BEESAT 2 05 Dec 06:35:25 06:37:22 13° 310° (NW) 06:39:22 435.950
HORYU 2 05 Dec 06:36:21 06:38:06 12° 295° (WNW) 06:39:51 437.375
AIST 1 05 Dec 06:52:14 06:56:39 79° 83° (E) 07:01:03
PHONESAT 2.4 05 Dec 06:53:06 06:54:16 12° 217° (SW) 06:55:25 2401.200-2431.200
Cubesat XI-IV 05 Dec 06:55:27 07:00:21 38° 289° (WNW) 07:05:13 437.490
NOAA 15 05 Dec 06:56:04 07:00:44 33° 290° (WNW) 07:05:25 137.62
GOMX 1 05 Dec 06:58:09 07:01:50 19° 293° (WNW) 07:05:32 467.674
CINEMA 3 05 Dec 07:01:02 07:05:45 55° 100° (E) 07:10:12 145.822/145.860
HO-68 05 Dec 07:05:50 07:12:36 43° 100° (E) 07:19:20 435.675
DOVE 4 05 Dec 07:13:02 07:17:29 28° 290° (WNW) 07:21:48 437.250
AIST 2 05 Dec 07:14:11 07:17:51 33° 113° (ESE) 07:21:34 435.215
CUTE 1.7 + AOD 2 05 Dec 07:25:12 07:29:23 60° 101° (E) 07:33:32 437.475
CUBEBUG 2 05 Dec 07:26:19 07:29:43 22° 95° (E) 07:33:01 437.445
RS-15 05 Dec 07:39:27 07:51:07 78° 300° (WNW) 08:03:26 29.354- 29.394
CANX-2 05 Dec 07:43:00 07:47:12 67° 283° (WNW) 07:51:23 2200.000
Cosmos 2504 05 Dec 07:43:48 07:52:17 56° 270° (W) 08:00:15 435.465 / 435.565
AAUSAT CUBESAT 2 05 Dec 07:53:32 07:57:28 41° 99° (E) 08:01:23 437.432
YUBILEINY 05 Dec 07:57:13 08:03:34 23° 278° (W) 08:09:57 435.215
Oscar 11 05 Dec 07:58:31 08:01:17 17° 94° (E) 08:04:03 145.826/435.025
PRISM 05 Dec 08:04:07 08:08:04 54° 74° (ENE) 08:12:03 437.425
STRAND 1 05 Dec 08:04:56 08:05:33 10° 269° (W) 08:06:11 437.568
UWE-3 05 Dec 08:10:11 08:14:18 45° 99° (E) 08:18:19 435.000/436.395/437.385
SEEDS 05 Dec 08:10:29 08:14:34 55° 285° (WNW) 08:18:40 437.485
NOAA 18 05 Dec 08:13:04 08:15:27 13° 298° (WNW) 08:17:51 137.9125
Cosmos 2491 05 Dec 08:19:28 08:26:40 28° 287° (WNW) 08:33:55 435.465 / 435.565
UNISAT 6 05 Dec 08:20:52 08:24:01 18° 68° (ENE) 08:27:10 437.425
COMPASS 1 05 Dec 08:22:41 08:26:47 60° 284° (WNW) 08:30:52 437.405
CINEMA 3 05 Dec 08:40:11 08:42:16 13° 295° (WNW) 08:44:18 145.822/145.860
CUSAT 1 05 Dec 08:41:50 08:44:53 26° 97° (E) 08:47:28 437.405
TIGRISAT 05 Dec 08:49:53 08:54:08 35° 72° (ENE) 08:58:23 435.000
ANTELSAT 05 Dec 08:51:01 08:55:21 38° 73° (ENE) 08:59:40 437.575/2403.000
ZACube-1 05 Dec 08:53:15 08:57:30 88° 282° (WNW) 09:01:38 437.345
AIST 2 05 Dec 08:53:27 08:56:22 19° 308° (NW) 08:59:19 435.215
HO-68 05 Dec 08:53:52 09:00:03 32° 295° (WNW) 09:06:12 435.675
HUMSAT D 05 Dec 08:55:21 08:56:55 12° 93° (E) 08:58:28 437.325/437.525
DELFI C3 05 Dec 09:00:19 09:03:50 29° 97° (E) 09:07:20 145.870
FUNcube-1 05 Dec 09:01:30 09:05:43 76° 284° (WNW) 09:09:50 145.935
CUBEBUG 2 05 Dec 09:02:41 09:06:14 25° 290° (WNW) 09:09:42 437.445
DANDE 05 Dec 09:17:44 09:21:54 25° 97° (E) 09:25:15 436.750
JAS-2 05 Dec 09:29:37 09:34:46 25° 69° (ENE) 09:39:28 435.910
AAUSAT CUBESAT 2 05 Dec 09:30:38 09:32:32 13° 292° (WNW) 09:34:25 437.432
Oscar 11 05 Dec 09:33:36 09:37:27 32° 288° (WNW) 09:41:17 145.826/435.025
UWE-3 05 Dec 09:48:35 09:50:18 12° 294° (WNW) 09:51:58 435.000/436.395/437.385
POPSAT HIP 1 05 Dec 09:50:27 09:53:08 16° 68° (ENE) 09:55:48 437.405
UNISAT 6 05 Dec 09:56:03 10:00:24 38° 262° (W) 10:04:45 437.425
RS-15 05 Dec 09:56:59 10:05:59 24° 325° (NW) 10:15:17 29.354- 29.394
TIGRISAT 05 Dec 10:27:31 10:30:50 19° 265° (W) 10:34:09 435.000
HUMSAT D 05 Dec 10:28:51 10:32:40 39° 286° (WNW) 10:36:28 437.325/437.525
ANTELSAT 05 Dec 10:29:02 10:32:07 17° 266° (W) 10:35:12 437.575/2403.000
CUBEBUG 1 05 Dec 10:32:49 10:34:57 13° 93° (E) 10:37:06 437.445
BUGSAT 1 05 Dec 10:33:10 10:35:46 16° 68° (ENE) 10:38:23 437.445
DELFI C3 05 Dec 10:35:54 10:38:22 16° 291° (WNW) 10:40:50 145.870
GONETS M04 05 Dec 10:37:00 10:43:57 26° 72° (ENE) 10:50:52
VELOX 1 05 Dec 10:42:38 10:43:35 11° 92° (E) 10:44:31 145.980
NANOSAT C BR1 05 Dec 10:43:53 10:48:07 69° 76° (ENE) 10:52:23 145.865
Cosmos 2499 05 Dec 10:46:15 10:53:40 32° 73° (ENE) 11:00:36 435.465 / 435.565
QB50P2 05 Dec 10:48:54 10:53:11 87° 254° (WSW) 10:57:30 145.880/145.840
POLYITAN 1 05 Dec 10:49:27 10:53:45 88° 69° (ENE) 10:58:03 437.675
PCSat 05 Dec 10:50:41 10:55:56 57° 112° (ESE) 11:01:15 145.827
DANDE 05 Dec 11:00:43 11:04:25 21° 279° (W) 11:07:29 436.750
QB50P1 05 Dec 11:02:50 11:07:04 63° 259° (WSW) 11:11:20 145.935-145.965
DUCHIFAT 1 05 Dec 11:06:31 11:10:45 68° 259° (W) 11:15:01 145.980
JAS-2 05 Dec 11:13:10 11:19:35 45° 260° (W) 11:25:20 435.910
JUGNU 05 Dec 11:14:19 11:18:05 17° 170° (S) 11:21:51 437.505
AO-85 05 Dec 11:15:14 11:19:10 88° 65° (ENE) 11:23:01 145.980
SPROUT 05 Dec 11:19:38 11:22:44 19° 95° (E) 11:25:48 437.525
POPSAT HIP 1 05 Dec 11:24:40 11:28:34 34° 262° (W) 11:32:30 437.405
ESTCUBE 1 05 Dec 11:29:04 11:33:34 74° 285° (WNW) 11:38:05 437.505/2401.250
AISAT 05 Dec 11:38:55 11:43:20 57° 101° (E) 11:47:43 437.250
BUGSAT 1 05 Dec 12:06:58 12:10:48 34° 262° (W) 12:14:42 437.445
CUBEBUG 1 05 Dec 12:07:11 12:11:24 44° 286° (WNW) 12:15:36 437.445
50 SAT 05 Dec 12:07:22 12:10:55 69° 284° (WNW) 12:14:27 437.505
VELOX 1 05 Dec 12:15:56 12:20:18 55° 286° (WNW) 12:24:38 145.980
RS-15 05 Dec 12:21:13 12:25:34 12° 2° (N) 12:29:56 29.354- 29.394
Gurwin Techsat 1B 05 Dec 12:22:37 12:27:14 31° 70° (ENE) 12:31:52 435.225
DX 1 05 Dec 12:31:37 12:36:00 71° 284° (WNW) 12:40:21 434.975-435.025
Oscar 19 05 Dec 12:31:41 12:36:46 80° 76° (ENE) 12:41:55 437.125/150
GONETS M04 05 Dec 12:32:41 12:41:10 58° 269° (W) 12:49:39
PCSat 05 Dec 12:36:01 12:39:40 18° 308° (NW) 12:43:22 145.827
Cosmos 2499 05 Dec 12:38:58 12:46:54 46° 272° (W) 12:54:19 435.465 / 435.565
UKube-1 05 Dec 12:40:11 12:44:31 77° 285° (WNW) 12:48:50 .
TISAT 1 05 Dec 12:43:41 12:47:17 27° 97° (E) 12:50:50 437.305
AO-7 05 Dec 12:49:39 12:54:19 16° 54° (NE) 12:58:58 29.400- 29.500
BEESAT 3 05 Dec 12:51:30 12:52:30 11° 48° (NE) 12:53:30 437.485
SRMSAT 05 Dec 12:52:46 12:55:28 13° 166° (SSE) 12:58:11 437.500
SPROUT 05 Dec 12:54:57 12:58:37 28° 289° (WNW) 13:02:16 437.525
ITAMSAT 1 05 Dec 13:00:57 13:03:58 16° 65° (ENE) 13:06:59 435.822/435.867
JUGNU 05 Dec 13:02:08 13:06:27 21° 181° (S) 13:10:44 437.505
AISAT 05 Dec 13:17:50 13:19:15 11° 295° (WNW) 13:20:39 437.250
SWISSCUBE 05 Dec 13:53:15 13:57:34 34° 98° (E) 14:01:51 437.505
AUBIESAT-1 05 Dec 13:54:43 13:58:33 26° 100° (E) 14:02:12 437.475
BEESAT 05 Dec 13:57:24 14:01:41 33° 98° (E) 14:05:58 436.000
Gurwin Techsat 1B 05 Dec 14:02:40 14:07:06 27° 264° (W) 14:11:33 435.225
M-CUBED/EXP-1 PRIME 05 Dec 14:05:56 14:10:24 45° 103° (ESE) 14:14:40 437.505
TISAT 1 05 Dec 14:19:37 14:22:42 20° 291° (WNW) 14:25:45 437.305
ITUPSAT 1 05 Dec 14:24:17 14:29:01 67° 102° (ESE) 14:33:44 437.325
BEESAT 3 05 Dec 14:26:34 14:30:30 61° 244° (WSW) 14:34:24 437.485
O/OREOS (USA 219) 05 Dec 14:30:27 14:32:26 13° 99° (E) 14:34:25 437.305
ISS 05 Dec 14:30:36 14:32:02 12° 126° (SE) 14:33:28 145.825
RS-15 05 Dec 14:34:54 14:44:47 26° 38° (NE) 14:54:26 29.354- 29.394
AO-7 05 Dec 14:37:34 14:45:51 85° 72° (ENE) 14:54:13 29.400- 29.500
ITAMSAT 1 05 Dec 14:37:49 14:42:55 55° 259° (W) 14:48:02 435.822/435.867
SRMSAT 05 Dec 14:39:46 14:43:56 20° 176° (S) 14:48:06 437.500
JUGNU 05 Dec 14:51:14 14:54:47 16° 191° (S) 14:58:20 437.505
BEESAT 2 05 Dec 14:54:18 14:58:19 70° 243° (WSW) 15:02:18 435.950
MOZHAYETS 4 05 Dec 15:08:41 15:13:05 46° 99° (E) 15:17:27
BRITE-PL 05 Dec 15:10:13 15:11:16 11° 64° (ENE) 15:12:22 437.365/2234.400
AUBIESAT-1 05 Dec 15:29:03 15:32:47 25° 295° (WNW) 15:36:24 437.475
SWISSCUBE 05 Dec 15:31:38 15:35:05 20° 292° (WNW) 15:38:32 437.505
BEESAT 05 Dec 15:35:43 15:39:13 21° 292° (WNW) 15:42:41 436.000
M-CUBED/EXP-1 PRIME 05 Dec 15:41:32 15:44:25 16° 298° (WNW) 15:47:12 437.505
KKS-1 05 Dec 15:43:10 15:47:27 44° 100° (E) 15:51:42 437.445
STARS 05 Dec 15:51:18 15:54:50 23° 96° (E) 15:58:21 437.465
HORYU 2 05 Dec 15:52:01 15:55:53 30° 71° (ENE) 15:59:47 437.375
ITUPSAT 1 05 Dec 16:05:01 16:06:13 11° 296° (WNW) 16:07:27 437.325
ISS 05 Dec 16:05:02 16:08:12 45° 320° (NW) 16:11:23 145.825
O/OREOS (USA 219) 05 Dec 16:06:57 16:11:21 47° 292° (WNW) 16:15:46 437.305
CUTE-I 05 Dec 16:10:12 16:13:08 15° 64° (ENE) 16:16:05 437.470
NOAA 18 05 Dec 16:16:34 16:17:58 11° 61° (ENE) 16:19:23 137.9125
GOMX 1 05 Dec 16:23:36 16:27:33 31° 71° (ENE) 16:31:44 467.674
SRMSAT 05 Dec 16:28:24 16:32:27 19° 186° (S) 16:36:30 437.500
NOAA 15 05 Dec 16:33:05 16:37:28 28° 69° (ENE) 16:41:51 137.62
Cubesat XI-IV 05 Dec 16:34:19 16:38:41 26° 68° (ENE) 16:43:03 437.490
AO-7 05 Dec 16:34:45 16:39:22 16° 267° (W) 16:44:02 29.400- 29.500
DOVE 4 05 Dec 16:37:31 16:40:47 19° 67° (ENE) 16:44:11 437.250
Cosmos 2491 05 Dec 16:37:31 16:43:46 21° 70° (ENE) 16:49:59 435.465 / 435.565
BRITE-PL 05 Dec 16:45:03 16:49:09 53° 261° (W) 16:53:32 437.365/2234.400
CUBESAT XI-V 05 Dec 16:46:40 16:51:21 77° 101° (E) 16:56:01 437.345
RS-15 05 Dec 16:46:49 16:59:15 87° 62° (ENE) 17:11:09 29.354- 29.394
MOZHAYETS 4 05 Dec 16:47:27 16:49:48 14° 293° (WNW) 16:52:08
LilacSat-2 05 Dec 16:59:07 17:02:44 40° 75° (ENE) 17:06:21 437.200
YUBILEINY 05 Dec 17:04:41 17:07:44 12° 77° (ENE) 17:10:48 435.215
AIST 2 05 Dec 17:16:44 17:20:59 90° 151° (SSE) 17:25:11 435.215
KKS-1 05 Dec 17:21:12 17:23:35 14° 294° (WNW) 17:25:59 437.445
STARS 05 Dec 17:27:27 17:31:04 25° 290° (WNW) 17:34:39 437.465
HORYU 2 05 Dec 17:29:04 17:32:24 20° 264° (W) 17:35:45 437.375
HO-68 05 Dec 17:31:44 17:36:53 22° 61° (ENE) 17:42:01 435.675
CUTE-I 05 Dec 17:47:19 17:52:37 60° 259° (W) 17:57:56 437.470
NOAA 18 05 Dec 17:52:16 17:57:48 86° 256° (WSW) 18:03:23 137.9125
CINEMA 3 05 Dec 17:58:10 18:02:32 33° 71° (ENE) 18:06:59 145.822/145.860
GOMX 1 05 Dec 18:02:24 18:05:41 20° 267° (W) 18:09:08 467.674
NOAA 15 05 Dec 18:12:35 18:17:06 29° 263° (W) 18:21:39 137.62
DOVE 4 05 Dec 18:13:42 18:18:04 39° 263° (W) 18:22:43 437.250
Cubesat XI-IV 05 Dec 18:13:43 18:18:32 34° 262° (W) 18:23:24 437.490
CUTE 1.7 + AOD 2 05 Dec 18:14:22 18:17:50 25° 72° (ENE) 18:21:18 437.475
SRMSAT 05 Dec 18:18:51 18:20:54 12° 195° (SSW) 18:22:57 437.500
CUBEBUG 2 05 Dec 18:21:20 18:23:46 14° 67° (ENE) 18:26:13 437.445
Cosmos 2504 05 Dec 18:25:05 18:31:16 24° 82° (E) 18:37:41 435.465 / 435.565
CANX-2 05 Dec 18:31:36 18:35:40 49° 75° (ENE) 18:39:44 2200.000
Cosmos 2491 05 Dec 18:32:38 18:41:16 69° 267° (W) 18:49:53 435.465 / 435.565
STRAND 1 05 Dec 18:35:41 18:40:15 33° 98° (E) 18:44:48 437.568
LilacSat-2 05 Dec 18:36:22 18:37:09 10° 267° (W) 18:37:57 437.200
AAUSAT CUBESAT 2 05 Dec 18:40:55 18:43:32 17° 69° (ENE) 18:46:10 437.432
YUBILEINY 05 Dec 18:54:23 19:03:04 83° 95° (E) 19:11:50 435.215
SEEDS 05 Dec 18:57:52 19:01:57 57° 76° (ENE) 19:06:03 437.485
RS-15 05 Dec 19:01:59 19:10:03 21° 261° (W) 19:17:58 29.354- 29.394
UWE-3 05 Dec 19:03:10 19:06:58 25° 71° (ENE) 19:10:45 435.000/436.395/437.385
COMPASS 1 05 Dec 19:09:10 19:13:09 50° 75° (ENE) 19:17:09 437.405
CUSAT 1 05 Dec 19:16:09 19:18:32 15° 79° (E) 19:21:14 437.405
HO-68 05 Dec 19:16:53 19:23:56 64° 257° (WSW) 19:31:04 435.675
AIST 1 05 Dec 19:17:13 19:21:24 55° 94° (E) 19:25:38
CINEMA 3 05 Dec 19:35:52 19:39:39 22° 266° (W) 19:43:30 145.822/145.860
SO-50 05 Dec 19:41:37 19:46:24 89° 292° (WNW) 19:51:09 436.795
PCSat 05 Dec 19:43:10 19:47:14 21° 53° (NE) 19:51:18 145.827
ZACube-1 05 Dec 19:44:34 19:48:54 44° 74° (ENE) 19:53:11 437.345
DELFI C3 05 Dec 19:44:58 19:45:36 10° 67° (ENE) 19:46:13 145.870
CUTE 1.7 + AOD 2 05 Dec 19:50:26 19:53:35 20° 265° (W) 19:56:46 437.475
FUNcube-1 05 Dec 19:52:25 19:56:48 49° 75° (ENE) 20:01:09 145.935
CUBEBUG 2 05 Dec 19:55:17 19:59:54 51° 260° (W) 20:04:32 437.445
CANX-2 05 Dec 20:11:01 20:11:44 10° 268° (W) 20:12:27 2200.000
AAUSAT CUBESAT 2 05 Dec 20:15:07 20:18:44 30° 263° (W) 20:22:22 437.432
STRAND 1 05 Dec 20:15:12 20:19:12 24° 292° (WNW) 20:23:12 437.568
Cosmos 2504 05 Dec 20:15:43 20:23:49 62° 280° (W) 20:32:29 435.465 / 435.565
Oscar 11 05 Dec 20:23:39 20:27:57 72° 258° (WSW) 20:32:16 145.826/435.025
UWE-3 05 Dec 20:39:22 20:43:17 26° 264° (W) 20:47:10 435.000/436.395/437.385
YUBILEINY 05 Dec 20:55:37 21:00:50 17° 293° (WNW) 21:06:07 435.215
CUSAT 1 05 Dec 20:56:38 21:00:13 33° 263° (W) 21:04:47 437.405
HUMSAT D 05 Dec 21:15:23 21:19:36 78° 77° (ENE) 21:23:48 437.325/437.525
DELFI C3 05 Dec 21:16:11 21:19:56 45° 260° (W) 21:23:43 145.870
ZACube-1 05 Dec 21:22:53 21:25:18 14° 267° (W) 21:27:43 437.345
PRISM 05 Dec 21:24:17 21:28:19 50° 286° (WNW) 21:32:20 437.425
PCSat 05 Dec 21:25:40 21:30:51 47° 249° (WSW) 21:36:00 145.827
SO-50 05 Dec 21:26:30 21:27:30 11° 315° (NW) 21:28:30 436.795
FUNcube-1 05 Dec 21:31:21 21:33:13 12° 267° (W) 21:35:05 145.935
DANDE 05 Dec 21:40:02 21:42:48 34° 263° (W) 21:46:11 436.750
UNISAT 6 05 Dec 21:51:29 21:55:49 60° 101° (E) 22:00:03 437.425
TIGRISAT 05 Dec 22:21:36 22:25:55 62° 285° (WNW) 22:30:09 435.000
ANTELSAT 05 Dec 22:23:02 22:27:19 56° 285° (WNW) 22:31:30 437.575/2403.000
ESTCUBE 1 05 Dec 22:24:26 22:28:49 61° 75° (ENE) 22:33:14 437.505/2401.250
JAS-2 05 Dec 22:26:38 22:30:53 25° 97° (E) 22:35:20 435.910
AISAT 05 Dec 22:32:32 22:36:23 30° 71° (ENE) 22:40:17 437.250
NANOSAT C BR1 05 Dec 22:33:37 22:35:57 15° 94° (E) 22:38:17 145.865
ISS 05 Dec 22:36:04 22:39:02 30° 37° (NE) 22:41:59 145.825
QB50P2 05 Dec 22:38:33 22:41:40 20° 95° (E) 22:44:46 145.880/145.840
POLYITAN 1 05 Dec 22:39:12 22:42:12 19° 95° (E) 22:45:11 437.675
50 SAT 05 Dec 22:39:19 22:42:07 23° 72° (ENE) 22:44:56 437.505
QB50P1 05 Dec 22:51:49 22:55:24 26° 97° (E) 22:58:58 145.935-145.965
DUCHIFAT 1 05 Dec 22:54:59 22:58:26 24° 96° (E) 23:01:50 145.980
CUBEBUG 1 05 Dec 22:58:38 23:02:58 89° 256° (WSW) 23:07:22 437.445
PHONESAT 2.4 05 Dec 23:06:43 23:09:05 28° 148° (SSE) 23:11:26 2401.200-2431.200
VELOX 1 05 Dec 23:08:50 23:13:13 79° 76° (ENE) 23:17:40 145.980
POPSAT HIP 1 05 Dec 23:12:54 23:17:00 48° 99° (E) 23:21:03 437.405
Cosmos 2499 05 Dec 23:17:21 23:24:16 29° 84° (E) 23:31:27 435.465 / 435.565
DX 1 05 Dec 23:22:56 23:27:12 58° 74° (ENE) 23:31:29 434.975-435.025
UKube-1 05 Dec 23:30:32 23:34:42 51° 74° (ENE) 23:38:54 .
TISAT 1 05 Dec 23:32:58 23:34:55 13° 67° (ENE) 23:36:53 437.305
GONETS M04 05 Dec 23:33:07 23:40:38 34° 86° (E) 23:48:07
SPROUT 05 Dec 23:43:32 23:47:47 63° 259° (W) 23:52:04 437.525
BUGSAT 1 05 Dec 23:52:19 23:56:18 42° 99° (E) 00:00:13 437.445
NANOSAT C BR1 06 Dec 00:07:54 00:11:45 36° 287° (WNW) 00:15:35 145.865
AISAT 06 Dec 00:09:41 00:12:50 19° 265° (W) 00:16:01 437.250
JAS-2 06 Dec 00:11:25 00:15:58 31° 289° (WNW) 00:20:44 435.910
ISS 06 Dec 00:12:53 00:15:22 20° 231° (SW) 00:17:50 145.825
50 SAT 06 Dec 00:13:18 00:15:21 15° 265° (W) 00:17:25 437.505
QB50P2 06 Dec 00:13:51 00:17:24 27° 289° (WNW) 00:20:56 145.880/145.840
POLYITAN 1 06 Dec 00:14:21 00:17:57 28° 289° (WNW) 00:21:32 437.675
QB50P1 06 Dec 00:27:52 00:30:58 20° 291° (WNW) 00:34:04 145.935-145.965
DUCHIFAT 1 06 Dec 00:30:43 00:33:57 22° 290° (WNW) 00:37:09 145.980
AUBIESAT-1 06 Dec 00:37:13 00:39:55 17° 62° (ENE) 00:42:44 437.475
PHONESAT 2.4 06 Dec 00:41:46 00:44:16 36° 342° (NNW) 00:46:46 2401.200-2431.200
O/OREOS (USA 219) 06 Dec 00:43:10 00:45:30 14° 59° (ENE) 00:47:49 437.305
Gurwin Techsat 1B 06 Dec 00:43:35 00:46:54 17° 93° (E) 00:50:12 435.225
Oscar 19 06 Dec 00:47:20 00:52:10 38° 99° (E) 00:56:58 437.125/150
M-CUBED/EXP-1 PRIME 06 Dec 00:48:26 00:51:54 28° 65° (ENE) 00:55:35 437.505
POPSAT HIP 1 06 Dec 00:50:46 00:52:18 12° 294° (WNW) 00:53:48 437.405
SWISSCUBE 06 Dec 00:56:10 01:00:06 26° 70° (ENE) 01:04:02 437.505
BEESAT 06 Dec 01:00:15 01:04:10 26° 69° (ENE) 01:08:04 436.000
TISAT 1 06 Dec 01:06:05 01:10:08 43° 261° (W) 01:14:12 437.305
Cosmos 2499 06 Dec 01:08:37 01:16:48 53° 281° (W) 01:25:27 435.465 / 435.565
UKube-1 06 Dec 01:10:09 01:10:59 10° 267° (W) 01:11:49 .
AO-85 06 Dec 01:24:42 01:29:44 77° 117° (ESE) 01:34:27 145.980
ITUPSAT 1 06 Dec 01:27:02 01:31:38 49° 73° (ENE) 01:36:15 437.325
GONETS M04 06 Dec 01:28:55 01:37:07 44° 282° (WNW) 01:45:20
BUGSAT 1 06 Dec 01:29:24 01:31:13 13° 293° (WNW) 01:33:03 437.445
MOZHAYETS 4 06 Dec 02:06:55 02:10:50 28° 71° (ENE) 02:14:45
AUBIESAT-1 06 Dec 02:10:18 02:13:58 34° 258° (WSW) 02:17:55 437.475
PHONESAT 2.4 06 Dec 02:17:57 02:19:56 18° 359° (N) 02:21:54 2401.200-2431.200
O/OREOS (USA 219) 06 Dec 02:20:51 02:25:08 46° 254° (WSW) 02:29:23 437.305
Gurwin Techsat 1B 06 Dec 02:21:56 02:27:03 49° 288° (WNW) 02:32:08 435.225
M-CUBED/EXP-1 PRIME 06 Dec 02:23:26 02:26:22 20° 262° (W) 02:29:27 437.505
Oscar 19 06 Dec 02:27:19 02:31:11 22° 293° (WNW) 02:35:03 437.125/150
SWISSCUBE 06 Dec 02:33:46 02:37:45 26° 263° (W) 02:41:45 437.505
KKS-1 06 Dec 02:37:41 02:41:21 25° 70° (ENE) 02:45:02 437.445
BEESAT 06 Dec 02:37:47 02:41:48 27° 263° (W) 02:45:49 436.000
AO-7 06 Dec 02:44:04 02:51:38 37° 99° (E) 02:59:09 29.400- 29.500
STARS 06 Dec 02:45:23 02:47:36 14° 66° (ENE) 02:49:49 437.465
ITAMSAT 1 06 Dec 02:54:28 02:59:39 73° 103° (ESE) 03:04:48 435.822/435.867
ITUPSAT 1 06 Dec 03:07:16 03:09:40 14° 267° (W) 03:12:04 437.325
AO-85 06 Dec 03:08:35 03:10:35 12° 311° (NW) 03:12:31 145.980
MOZHAYETS 4 06 Dec 03:44:22 03:47:55 22° 264° (W) 03:51:30
CUBESAT XI-V 06 Dec 03:46:01 03:50:23 46° 74° (ENE) 03:54:46 437.345
PHONESAT 2.4 06 Dec 03:53:14 03:55:37 29° 15° (NNE) 03:58:00 2401.200-2431.200
BEESAT 3 06 Dec 04:12:47 04:16:35 54° 115° (ESE) 04:20:24 437.485
KKS-1 06 Dec 04:14:13 04:17:48 24° 264° (W) 04:21:24 437.445
SO-50 06 Dec 04:17:16 04:21:07 27° 53° (NE) 04:24:56 436.795
STARS 06 Dec 04:19:16 04:23:30 45° 260° (W) 04:27:46 437.465
GOMX 1 06 Dec 04:29:45 04:33:04 16° 92° (E) 04:36:22 467.674
AO-7 06 Dec 04:36:36 04:44:21 44° 295° (WNW) 04:52:07 29.400- 29.500
ITAMSAT 1 06 Dec 04:36:43 04:38:26 12° 297° (WNW) 04:40:08 435.822/435.867
BEESAT 2 06 Dec 04:42:02 04:45:49 50° 115° (ESE) 04:49:40 435.950
BRITE-PL 06 Dec 04:52:12 04:57:41 67° 101° (E) 05:03:20 437.365/2234.400
NOAA 15 06 Dec 04:53:15 04:55:54 14° 93° (E) 04:58:33 137.62
Cubesat XI-IV 06 Dec 04:56:45 04:59:12 13° 92° (E) 05:01:40 437.490
RS-15 06 Dec 04:58:13 05:04:37 17° 98° (E) 05:11:08 29.354- 29.394
YUBILEINY 06 Dec 05:09:56 05:17:46 34° 75° (ENE) 05:25:33 435.215
HORYU 2 06 Dec 05:22:25 05:26:51 80° 284° (WNW) 05:31:14 437.375
CUBESAT XI-V 06 Dec 05:25:45 05:27:57 13° 267° (W) 05:30:10 437.345
PHONESAT 2.4 06 Dec 05:28:23 05:30:54 41° 210° (SSW) 05:33:25 2401.200-2431.200
Cosmos 2491 06 Dec 05:33:50 05:40:54 28° 84° (E) 05:47:57 435.465 / 435.565
STRAND 1 06 Dec 05:47:46 05:52:18 32° 70° (ENE) 05:56:50 437.568
BEESAT 3 06 Dec 05:53:11 05:54:31 11° 311° (NW) 05:55:51 437.485
